{"data":{"norad_id":57745,"intl_designator":"2023-131P","name":"STARLINK-30362","alt_names":[],"object_type":"PAYLOAD","status":"ACTIVE","operator":null,"country":"US","launch_date":"2023-09-01","launch_site_code":"AFETR","launch_vehicle":null,"mission":null,"orbit_class":"UNKNOWN","rcs_meters":null,"size_class":null,"mass_kg":null,"dimensions":null,"purposes":["comms"],"wikipedia_slug":null,"has_3d_model":false,"image_url":null,"decayed_at":null,"tle_current":{"epoch":"2026-05-24T14:46:54.224832Z","epoch_age_seconds":111279,"freshness":"FRESH","line1":"1 57745U 23131P   26144.61590538 -.00000095  00000+0  60486-5 0  9995","line2":"2 57745  43.0035 104.0634 0000589 269.6279  90.4505 15.27561365151524","mean_motion":15.27561365,"eccentricity":5.89e-5,"inclination_deg":43.0035,"raan_deg":104.0634,"arg_perigee_deg":269.6279,"mean_anomaly_deg":90.4505,"bstar":6.0486e-6,"rev_number":15152,"period_min":94.267898690931,"perigee_km":482.70076935312,"apogee_km":483.50902364852,"semimajor_km":6861.2418965008,"source":"CELESTRAK","updated_at":"2026-05-25T13:38:18.401464Z"}}}